Location: Caltech
(34.1382°N, 118.1253°W)
Time: 09:18:50
(UTC-07:00)

Iridium 68 - Visible Passes

Search period start: 18 April 2014 00:00
Search period end: 28 April 2014 00:00
Orbit: 776 x 779 km, 86.4° (Epoch: 18 April)

Date Brightness Start Highest point End Pass type
(mag) Time Alt. Az. Time Alt. Az. Time Alt. Az.
18 Apr 6.5 21:31:52 10° N 21:36:02 45° NE 21:36:02 45° NE visible
18 Apr 8.6 23:14:21 10° NW 23:16:32 14° WNW 23:16:32 14° WNW visible
19 Apr 7.1 20:58:56 10° NNE 21:02:59 26° ENE 21:02:59 26° ENE visible
19 Apr 7.7 22:39:30 10° NNW 22:43:29 28° WNW 22:43:29 28° WNW visible
20 Apr 7.8 20:26:57 10° NE 20:29:30 14° ENE 20:29:58 13° E visible
20 Apr 6.5 22:05:27 10° NNW 22:10:28 55° W 22:10:28 55° W visible
21 Apr 5.8 21:31:51 10° N 21:37:04 77° E 21:37:28 72° SE visible
22 Apr 6.5 20:58:38 10° NNE 21:03:29 39° E 21:04:30 35° ESE visible
22 Apr 8.2 22:40:15 10° NW 22:43:50 19° W 22:45:00 18° W visible
23 Apr 7.4 20:25:58 10° NNE 20:29:47 20° E 20:31:33 17° ESE visible
23 Apr 7.3 22:05:49 10° NNW 22:10:33 36° W 22:12:03 30° WSW visible
24 Apr 6.2 21:31:58 10° N 21:37:09 72° W 21:39:08 38° SSW visible
25 Apr 6.1 20:58:30 10° N 21:03:39 58° E 21:06:14 28° SSE visible
25 Apr 8.7 22:41:36 10° NW 22:43:44 13° W 22:45:53 10° WSW visible
26 Apr 6.9 20:25:28 10° NNE 20:30:01 30° E 20:33:23 16° SE visible
26 Apr 8.0 22:06:23 10° NNW 22:10:32 25° W 22:13:53 13° SW visible
27 Apr 6.9 21:32:13 10° NNW 21:37:12 47° W 21:41:04 16° SSW visible
